Regional Weather Roundup
Issued by NWS

Home | Current Version | Previous Version | Text Only | Print | Product List | Glossary Off
Versions: 1 2 3 4 5 6 7 8 9 10 11 12 13 14 15 16 17 18 19 20 21 22 23 24 25 26 27 28 29 30 31 32 33 34 35 36 37 38 39 40 41 42 43 44 45 46 47 48 49 50

584
ASUS45 KABQ 211401
RWRNM
NEW MEXICO REGIONAL WEATHER ROUNDUP
NATIONAL WEATHER SERVICE ALBUQUERQUE NM
800 AM MDT THU MAY 21 2015

NOTE: "FAIR" MEANS FEW OR NO CLOUDS BELOW 12,000 FEET AGL WITH NO
       SIGNIFICANT WEATHER OR OBSTRUCTIONS TO VISION.

      THIS PRODUCT IS RELEASED AS TWO VERSIONS.  ONE VERSION NEAR
      THE TOP OF THE HOUR CONTAINING PRELIMINARY DATA FROM ALBUQUERQUE
      AND OTHER STATIONS.  A FINAL VERSION WITH ADDITIONAL DATA IS
      ISSUED ABOUT 10 MINUTES AFTER THE HOUR.

NMZ501-503-504-510>518-211500-
NORTHWEST PLATEAU/NORTHCENTRAL MOUNTAINS

CITY           SKY/WX    TMP DP  RH WIND       PRES   REMARKS
FARMINGTON     SUNNY     56  42  59 E10       30.09S
SANTA FE       CLOUDY    50  40  68 SE15      30.24S
TAOS           PTSUNNY   46  36  66 W6        30.26S

$$
NMZ402-403-502-505>509-211500-
WESTCENTRAL MOUNTAINS/SOUTHWEST MOUNTAINS

CITY           SKY/WX    TMP DP  RH WIND       PRES   REMARKS
GALLUP         CLOUDY    53  38  56 E7        30.13S
SILVER CITY      N/A     59  39  47 S5        30.13S

$$
NMZ407-409-411-412-211500-
SOUTHERN DESERTS

CITY           SKY/WX    TMP DP  RH WIND       PRES   REMARKS
DEMING         MOSUNNY   61  51  70 E10       30.08R
HOLLOMAN AFB   CLOUDY    61  50  68 CALM      30.09R
ALAMOGORDO     PTSUNNY   63  48  59 N14       30.10R
T OR C         PTSUNNY   60  46  59 NE9       30.11R

$$
NMZ519>523-211500-
CENTRAL VALLEYS/CENTRAL HIGHLANDS

CITY           SKY/WX    TMP DP  RH WIND       PRES   REMARKS
ALBUQUERQUE    PTSUNNY   55  43  63 E24G30    30.17S
DOUBLE EAGLE   PTSUNNY   54  43  66 E7        30.20S
CLINES CORNERS CLOUDY    43  41  93 E14       30.26S FOG
BELEN          FAIR      56  43  62 NW10      30.16S
SOCORRO        NOT AVBL

$$
NMZ524>526-539-540-211500-
SOUTHCENTRAL MOUNTAINS

CITY           SKY/WX    TMP DP  RH WIND       PRES   REMARKS
RUIDOSO        NOT AVBL

$$
NMZ527>531-211500-
NORTHEAST HIGHLANDS/NORTHEAST PLAINS

CITY           SKY/WX    TMP DP  RH WIND       PRES   REMARKS
LAS VEGAS      CLOUDY    43  41  93 S8        30.29R
RATON          CLOUDY    43  41  93 S13       30.26S
CLAYTON        FOG       42  41  96 E8        30.29F VSB<1/4

$$
NMZ532>537-211500-
EASTCENTRAL PLAINS

CITY           SKY/WX    TMP DP  RH WIND       PRES   REMARKS
TUCUMCARI      CLOUDY    47  45  93 E15       30.28R FOG
CANNON AFB     CLOUDY    45  45 100 E13       30.28S FOG
CLOVIS AIRPORT CLOUDY    45  41  87 E14       30.31R

$$
NMZ028-029-538-211500-
SOUTHEAST PLAINS

CITY           SKY/WX    TMP DP  RH WIND       PRES   REMARKS
ROSWELL        LGT RAIN  52  50  93 E10       30.23S FOG
ARTESIA        CLOUDY    52  52 100 E10       30.24S FOG
CARLSBAD       CLOUDY    54  52  93 NE10      30.22R FOG
HOBBS          DRIZZLE   48  48 100 NE15      30.26R FOG


$$



USA.gov is the U.S. government's official web portal to all federal, state and local government web resources and services.